SCOUT X-4 DEB, 805

Orbit data source: Space-Track

SCOUT X-4 DEB, 805 is space debris in LEO originally from a launch on Thu, 04 Jun 1964 UTC launched from the Air Force Western Test Range (AFWTR). Debris objects in space refer to the collection of defunct objects orbiting the Earth. Examples of debris include non-operational satellites, rocket bodies, and fragments generated from explosions, collisions, or faulty payload assembly.

Loading next visibility...
Identifier
805, 1964-026B
Orbit
LEO
Country
Flag of USUS
Related business
Manufacturer
Unknown
Mission
Spacecraft
Bus & Motor
Unknown
Mass
Unknown
Launch date (UTC)
1964-06-04 (62 years ago)
Launch vehicle
Unknown
Launch site
Air Force Western Test Range (AFWTR)
Object type
Payload
Rocket body
Debris
Shape & HBR
Unknown shape, 0.1 m
Radar Cross Section
Small (<0.1 m²)

Expand to show TLE details & history
Last TLE update: 16 hours ago

TLE from 16 hours ago
0 SCOUT X-4 DEB
1 00805U 64026B   25352.94974877  .00001565  00000-0  53864-3 0  9999
2 00805  89.8584 331.8598 0031983  69.9830 290.4808 14.35341272164175
Epoch: 2025-12-18T22:47Z
TLE epoch observation values (Epoch: 2025-12-18T22:47:38.293Z)
Latitude
Longitude
-97.84767°
Altitude
769.068 km
Speed
7.474 km/s
True Right ascension
22h 07m 26s
True Declination
0° 00' 00"
Sunlit
Object was in daylight at epoch
Visualization orbit readout
Latitude
Unknown
Longitude
Unknown
Altitude
Unknown
Speed
Unknown
Apparent Right ascension
Unknown
Apparent Declination
Unknown
Sunlit
N/A
Visualization observer readout
Local Sidereal Time
13:11:46
Azimuth
Unknown
Elevation
Unknown
Doppler factor
Unknown
Orbital elements
Apogee altitude
793.724 km
Perigee altitude
747.994 km
Semi-major axis
7,148.996 km
Eccentricity
0.0032
Inclination
89.8584°
RAAN
331.8598°
Arg. of periapsis
69.983°
True anomaly
290.13699°
Mean anomaly
290.4808°
Eccentric anomaly
290.30894°
Mean motion
3.59067 °/min
Orbital period
100.26 mins
BSTAR
0.00053864
Loading maneuver chart data...
Computing Atmospheric mass density...
Loading historical data...
Loading historical data...
Loading historical data...
Loading historical data...
Loading historical data...
Loading historical data...
Loading historical data...

Documentation

Showing up to 5 results
|